When you browse on this site, cookies collect data to enhance your experience and personalize the content and advertising you see.
Visit our Privacy Policy to learn more. By continuing to use the site, you agree to this use of cookies and data.
  • In United Kingdom
  • List of Countries
  • For 7 days
  • Water Temperature
  • Satellite Maps
  • Weather Map
  • Weather Widgets
  • user-avatar
    Login

    Hourly Weather Springs Pain

    Today, 20 February, Wednesday

    Time Temperature Precipitation Wind Pressure Humidity
    00:00 +29°C° 0 mm 3 mps 758 mmHg 86%
    01:00 +28°C° 0 mm 2 mps 757 mmHg 87%
    02:00 +28°C° 0 mm 2 mps 757 mmHg 87%
    03:00 +28°C° 0 mm 2 mps 757 mmHg 88%
    04:00 +28°C° 0 mm 2 mps 757 mmHg 88%
    05:00 +28°C° 0 mm 2 mps 757 mmHg 88%
    06:00 +28°C° 1 mm 2 mps 758 mmHg 85%
    07:00 +29°C° 1 mm 2 mps 758 mmHg 83%
    08:00 +29°C° 1 mm 2 mps 758 mmHg 80%
    09:00 +31°C° 0.9 mm 2 mps 758 mmHg 71%
    10:00 +34°C° 0.9 mm 2 mps 759 mmHg 62%
    11:00 +35°C° 0.9 mm 1 mps 759 mmHg 53%
    12:00 +36°C° 0 mm 2 mps 758 mmHg 51%
    13:00 +36°C° 0 mm 3 mps 757 mmHg 50%
    14:00 +36°C° 0 mm 4 mps 757 mmHg 49%
    15:00 +35°C° 0 mm 4 mps 757 mmHg 54%
    16:00 +34°C° 0 mm 4 mps 757 mmHg 60%
    17:00 +32°C° 0 mm 4 mps 757 mmHg 65%
    18:00 +30°C° 0 mm 3 mps 757 mmHg 71%
    19:00 +29°C° 0 mm 3 mps 758 mmHg 77%
    20:00 +28°C° 0 mm 2 mps 759 mmHg 83%
    21:00 +28°C° 2 mm 2 mps 759 mmHg 85%
    22:00 +28°C° 2 mm 2 mps 759 mmHg 87%
    23:00 +28°C° 2 mm 2 mps 760 mmHg 89%

    Tomorrow, 21 February, Thursday

    Time Temperature Precipitation Wind Pressure Humidity
    00:00 +27°C° 0.1 mm 2 mps 759 mmHg 89%
    01:00 +27°C° 0.1 mm 2 mps 759 mmHg 89%
    02:00 +27°C° 0.1 mm 2 mps 758 mmHg 89%
    03:00 +27°C° 0.1 mm 1 mps 758 mmHg 90%
    04:00 +27°C° 0.1 mm 1 mps 758 mmHg 90%
    05:00 +25°C° 0.1 mm 0 mps 758 mmHg 90%
    06:00 +27°C° 0.2 mm 1 mps 759 mmHg 89%
    07:00 +27°C° 0.2 mm 1 mps 759 mmHg 89%
    08:00 +28°C° 0.2 mm 1 mps 760 mmHg 88%
    09:00 +28°C° 0 mm 1 mps 760 mmHg 85%
    10:00 +27°C° 0 mm 0 mps 760 mmHg 82%
    11:00 +27°C° 0 mm 0 mps 760 mmHg 80%
    12:00 +31°C° 0 mm 1 mps 759 mmHg 71%
    13:00 +32°C° 0 mm 1 mps 758 mmHg 63%
    14:00 +34°C° 0 mm 1 mps 758 mmHg 54%
    15:00 +34°C° 0 mm 2 mps 758 mmHg 58%
    16:00 +32°C° 0 mm 2 mps 757 mmHg 61%
    17:00 +32°C° 0 mm 2 mps 757 mmHg 64%
    18:00 +30°C° 0 mm 3 mps 758 mmHg 70%
    19:00 +29°C° 0 mm 3 mps 759 mmHg 76%
    20:00 +28°C° 0 mm 3 mps 759 mmHg 83%
    21:00 +28°C° 0 mm 3 mps 760 mmHg 84%
    22:00 +28°C° 0 mm 3 mps 760 mmHg 85%
    23:00 +28°C° 0 mm 3 mps 760 mmHg 86%

    Day after tomorrow, 22 February, Friday

    Time Temperature Precipitation Wind Pressure Humidity
    00:00 +28°C° 0 mm 2 mps 760 mmHg 87%
    01:00 +27°C° 0 mm 2 mps 759 mmHg 88%
    02:00 +27°C° 0 mm 2 mps 759 mmHg 89%
    03:00 +27°C° 0 mm 1 mps 759 mmHg 89%
    04:00 +27°C° 0 mm 1 mps 759 mmHg 90%
    05:00 +27°C° 0 mm 1 mps 759 mmHg 91%
    06:00 +28°C° 0 mm 1 mps 759 mmHg 85%
    07:00 +29°C° 0 mm 1 mps 760 mmHg 79%
    08:00 +31°C° 0 mm 2 mps 760 mmHg 73%
    09:00 +31°C° 0 mm 2 mps 760 mmHg 71%
    10:00 +31°C° 0 mm 2 mps 760 mmHg 70%
    11:00 +32°C° 0 mm 2 mps 760 mmHg 68%
    12:00 +33°C° 0 mm 3 mps 759 mmHg 66%
    13:00 +34°C° 0 mm 3 mps 758 mmHg 63%
    14:00 +34°C° 0 mm 4 mps 757 mmHg 61%
    15:00 +34°C° 0 mm 4 mps 757 mmHg 64%
    16:00 +33°C° 0 mm 4 mps 757 mmHg 67%
    17:00 +33°C° 0 mm 4 mps 757 mmHg 70%
    18:00 +31°C° 0 mm 3 mps 757 mmHg 75%
    19:00 +30°C° 0 mm 3 mps 758 mmHg 80%
    20:00 +28°C° 0 mm 3 mps 759 mmHg 85%
    21:00 +28°C° 0 mm 3 mps 759 mmHg 86%
    22:00 +28°C° 0 mm 3 mps 759 mmHg 88%
    23:00 +28°C° 0 mm 2 mps 759 mmHg 89%

    23 February, Saturday

    Time Temperature Precipitation Wind Pressure Humidity
    00:00 +28°C° 0 mm 3 mps 758 mmHg 90%
    01:00 +28°C° 0 mm 3 mps 758 mmHg 91%
    02:00 +27°C° 0 mm 3 mps 757 mmHg 91%
    03:00 +27°C° 0.7 mm 3 mps 757 mmHg 91%
    04:00 +27°C° 0.7 mm 2 mps 758 mmHg 92%
    05:00 +27°C° 0.7 mm 2 mps 758 mmHg 92%
    06:00 +28°C° 0.1 mm 2 mps 758 mmHg 88%
    07:00 +29°C° 0.1 mm 2 mps 759 mmHg 84%
    08:00 +30°C° 0.1 mm 2 mps 759 mmHg 80%
    09:00 +32°C° 0.1 mm 2 mps 759 mmHg 71%
    10:00 +35°C° 0.1 mm 2 mps 759 mmHg 63%
    11:00 +37°C° 0.1 mm 2 mps 759 mmHg 54%
    12:00 +36°C° 0.8 mm 2 mps 758 mmHg 59%
    13:00 +35°C° 0.8 mm 3 mps 757 mmHg 63%
    14:00 +34°C° 0.8 mm 4 mps 755 mmHg 68%
    15:00 +33°C° 0.2 mm 4 mps 755 mmHg 71%
    16:00 +32°C° 0.2 mm 4 mps 755 mmHg 74%
    17:00 +30°C° 0.2 mm 4 mps 755 mmHg 77%
    18:00 +30°C° 0 mm 4 mps 756 mmHg 80%
    19:00 +29°C° 0 mm 4 mps 756 mmHg 83%
    20:00 +28°C° 0 mm 3 mps 757 mmHg 86%
    21:00 +28°C° 0 mm 3 mps 757 mmHg 88%
    22:00 +28°C° 0 mm 3 mps 757 mmHg 89%
    23:00 +28°C° 0 mm 3 mps 757 mmHg 90%

    24 February, Sunday

    Time Temperature Precipitation Wind Pressure Humidity
    00:00 +28°C° 0.1 mm 3 mps 757 mmHg 90%
    01:00 +28°C° 0.1 mm 2 mps 756 mmHg 89%
    02:00 +28°C° 0.1 mm 2 mps 756 mmHg 88%
    03:00 +28°C° 0.2 mm 2 mps 756 mmHg 89%
    04:00 +28°C° 0.2 mm 2 mps 757 mmHg 89%
    05:00 +28°C° 0.2 mm 2 mps 757 mmHg 90%
    06:00 +28°C° 0.3 mm 2 mps 757 mmHg 86%
    07:00 +29°C° 0.3 mm 2 mps 758 mmHg 83%
    08:00 +30°C° 0.3 mm 2 mps 758 mmHg 79%
    09:00 +32°C° 0.4 mm 2 mps 758 mmHg 71%
    10:00 +34°C° 0.4 mm 2 mps 758 mmHg 63%
    11:00 +36°C° 0.4 mm 2 mps 758 mmHg 55%
    12:00 +36°C° 0.1 mm 3 mps 757 mmHg 55%
    13:00 +35°C° 0.1 mm 4 mps 756 mmHg 56%
    14:00 +35°C° 0.1 mm 4 mps 756 mmHg 57%
    15:00 +34°C° 0.1 mm 4 mps 756 mmHg 62%
    16:00 +33°C° 0.1 mm 4 mps 756 mmHg 67%
    17:00 +32°C° 0.1 mm 4 mps 756 mmHg 72%
    18:00 +30°C° 0 mm 4 mps 756 mmHg 76%
    19:00 +29°C° 0 mm 3 mps 757 mmHg 81%
    20:00 +28°C° 0 mm 3 mps 757 mmHg 85%
    21:00 +28°C° 0 mm 3 mps 757 mmHg 86%
    22:00 +28°C° 0 mm 3 mps 757 mmHg 87%
    23:00 +28°C° 0 mm 3 mps 757 mmHg 88%

    25 February, Monday

    Time Temperature Precipitation Wind Pressure Humidity
    00:00 +27°C° 0 mm 3 mps 757 mmHg 89%
    01:00 +27°C° 0 mm 3 mps 756 mmHg 90%
    02:00 +27°C° 0 mm 3 mps 756 mmHg 90%
    03:00 +27°C° 0 mm 2 mps 756 mmHg 91%
    04:00 +27°C° 0 mm 2 mps 756 mmHg 91%
    05:00 +27°C° 0 mm 2 mps 757 mmHg 91%
    06:00 +28°C° 0 mm 2 mps 757 mmHg 85%
    07:00 +29°C° 0 mm 2 mps 757 mmHg 80%
    08:00 +30°C° 0 mm 2 mps 758 mmHg 74%
    09:00 +31°C° 0 mm 2 mps 758 mmHg 69%
    10:00 +32°C° 0 mm 2 mps 757 mmHg 65%
    11:00 +34°C° 0 mm 2 mps 757 mmHg 60%
    12:00 +34°C° 0.1 mm 3 mps 756 mmHg 60%
    13:00 +34°C° 0.1 mm 4 mps 756 mmHg 60%
    14:00 +34°C° 0.1 mm 4 mps 755 mmHg 61%
    15:00 +34°C° 0 mm 4 mps 755 mmHg 63%
    16:00 +33°C° 0 mm 4 mps 755 mmHg 65%
    17:00 +33°C° 0 mm 4 mps 755 mmHg 67%
    18:00 +30°C° 0 mm 4 mps 756 mmHg 73%
    19:00 +29°C° 0 mm 3 mps 756 mmHg 79%
    20:00 +28°C° 0 mm 3 mps 757 mmHg 85%
    21:00 +28°C° 0 mm 3 mps 757 mmHg 86%
    22:00 +28°C° 0 mm 3 mps 757 mmHg 88%
    23:00 +28°C° 0 mm 3 mps 757 mmHg 90%
    Show more